Regional Weather Roundup
Issued by NWS Little Rock, AR

Home | Current Version | Previous Version | Graphics & Text | Print | Product List | Glossary On
Versions: 1 2 3 4 5 6 7 8 9 10 11 12 13 14 15 16 17 18 19 20 21 22 23 24 25 26 27 28 29 30 31 32 33 34 35 36 37 38 39 40 41 42 43 44 45 46 47 48 49 50
000
ASUS44 KLZK 201305
RWRLZK

WEATHER ROUNDUP FOR ARKANSAS
NATIONAL WEATHER SERVICE LITTLE ROCK AR
700 AM CST SAT DEC 20 2014

NOTE: "FAIR" INDICATES FEW OR NO CLOUDS BELOW 12,000 FEET WITH NO
SIGNIFICANT WEATHER AND/OR OBSTRUCTIONS TO VISIBILITY.

ARZ001-003-010-029-201400-
NORTHWEST ARKANSAS

CITY           SKY/WX    TMP DP  RH WIND       PRES   REMARKS
FAYETTEVILLE   CLOUDY    39  38  96 CALM      30.23R
FORT SMITH     FOG       42  40  92 E3        30.26R VSB 1/2
HARRISON       FOG       37  37 100 SE3       30.22R VSB 1/4
BENTONVILLE    CLOUDY    39  37  93 CALM      30.22S VSB 3/4
ROGERS         FOG       39  39 100 CALM      30.22R VSB 3/4
SILOAM SPGS    CLOUDY    39  34  81 NW3       30.24R VSB 1/2
HIGHFILL       FOG       39  39 100 CALM      30.22R VSB 3/4
SPRINGDALE     FOG       39  39 100 SW3       30.24R VSB 1/2
$$

ARZ004-005-016-201400-
NORTH CENTRAL ARKANSAS

CITY           SKY/WX    TMP DP  RH WIND       PRES   REMARKS
BATESVILLE     CLOUDY    37  34  87 CALM      30.27R
FLIPPIN        CLOUDY    36  32  87 CALM      30.24S
MTN HOME       CLOUDY    35  35 100 SE3       30.24R FOG
$$

ARZ040-041-201400-
WEST CENTRAL ARKANSAS

CITY           SKY/WX    TMP DP  RH WIND       PRES   REMARKS
MENA           CLOUDY    43  43 100 CALM      30.23R
MOUNT IDA      CLOUDY    41  39  93 CALM      30.22R
$$

ARZ009-017-025-026-028-201400-
NORTHEAST ARKANSAS

CITY           SKY/WX    TMP DP  RH WIND       PRES   REMARKS
CORNING        CLOUDY    37  36  93 CALM      30.29S FOG
JONESBORO      CLOUDY    38  35  89 CALM      30.28R
NEWPORT        CLOUDY    38  36  92 NE6       30.28S
WALNUT RIDGE   MOCLDY    37  32  81 NE5       30.28R
BLYTHEVILLE    CLOUDY    38  34  85 NE3       30.28R
$$

ARZ022-023-033-042-044-201400-
CENTRAL ARKANSAS

CITY           SKY/WX    TMP DP  RH WIND       PRES   REMARKS
LITTLE ROCK    CLOUDY    41  34  76 NE3       30.28R
N LITTLE ROCK    N/A     38  37  94 NE5       30.28R
JACKSONVILLE   CLOUDY    39  35  87 NE2       30.27R
SEARCY         CLOUDY    39  35  86 CALM      30.29R
HOT SPRINGS    CLOUDY    40  37  89 CALM      30.25R
RUSSELLVILLE   CLOUDY    41  37  86 CALM      30.26R
CLINTON        MOCLDY    39  37  93 CALM      30.28R FOG
$$

ARZ036-201400-
EAST ARKANSAS

CITY           SKY/WX    TMP DP  RH WIND       PRES   REMARKS
WEST MEMPHIS   CLOUDY    39  35  86 CALM      30.27R
$$

ARZ050-053-066-070-073-201400-
SOUTHWEST ARKANSAS

CITY           SKY/WX    TMP DP  RH WIND       PRES   REMARKS
ARKADELPHIA    CLOUDY    41  40  96 NE5       30.27R
CAMDEN         CLOUDY    41  37  87 CALM      30.26R FOG
TEXARKANA      CLOUDY    42  40  92 NE5       30.25R FOG
EL DORADO      PTCLDY    38  37  97 CALM      30.25R FOG
DE QUEEN       CLOUDY    43  41  93 E3        30.23R FOG
$$

ARZ056-057-069-201400-
SOUTHEAST ARKANSAS

CITY           SKY/WX    TMP DP  RH WIND       PRES   REMARKS
PINE BLUFF     CLOUDY    40  36  86 NE7       30.26R
STUTTGART      CLOUDY    39  34  81 NE8       30.27R
MONTICELLO     CLEAR     37  35  92 VRB3      30.25R FOG

$$




USA.gov is the U.S. government's official web portal to all federal, state and local government web resources and services.